Flag for Poland Weather past 2 weeks in Ruda Śląska, Poland

Now
48 °F

Passing clouds.


Feels Like: 41 °F
Forecast: 42 / 46 °F
Wind: 21 mph from Southwest

Location: Katowice Airport

Current Time: Dec 23, 2014 at 2:07:27 AM

Latest Report: Dec 23, 2014 at 1:30 AM


Visibility: N/A

Pressure: 29.86 "Hg

Humidity: 71%

Dew point: 39 °F

Location of Ruda ŚląskaLocation

Historic Weather in Ruda Śląska — Graph

°F

Ruda Śląska temperature yesterday

Maximum temperature yesterday: 48 °F (at 10:30 PM)
Minimum temperature yesterday: 37 °F (at 12:00 AM)
Average temperature yesterday: 42 °F

Past Weeks' High & Low Weather Summary

 TemperatureHumidityPressure
High52 °F (Dec 19, 11:30 AM)100% (Dec 8, 7:30 AM)30.39 "Hg (Dec 8, 7:30 AM)
Low16 °F (Dec 10, 7:00 AM)46% (Dec 12, 8:00 PM)29.71 "Hg (Dec 12, 5:30 PM)
Average39 °F83%29.96 "Hg
* Reported Dec 8 1:00 AM — Dec 23 1:00 AM, Ruda Śląska, Weather by CustomWeather, © 2014

Note: Actual official high and low records may vary slightly from our data, if they occured in-between our weather recording intervals... More about our weather records

Advertising

Ruda Śląska weather history for previous 24 hours

 ConditionsComfort  
Time TempWeatherWind HumidityBarometerVisibility
1:00 AM
Dec 23
48 °FPassing clouds.23 mph71%29.86 "HgN/A
12:30 AM48 °FPassing clouds.23 mph71%29.86 "HgN/A
12:00 AM48 °FPassing clouds.21 mph71%29.86 "HgN/A
11:30 PM
Dec 22
48 °FPassing clouds.22 mph76%29.86 "HgN/A
11:00 PM48 °FPassing clouds.18 mph76%29.86 "HgN/A
10:30 PM48 °FPassing clouds.20 mph76%29.86 "HgN/A
10:00 PM46 °FPassing clouds.20 mph82%29.86 "HgN/A
9:30 PM46 °FLight rain. Passing clouds.22 mph82%29.86 "HgN/A
9:00 PM46 °FLight rain. Passing clouds.23 mph82%29.86 "HgN/A
8:30 PM46 °FLight rain. Passing clouds.22 mph82%29.86 "HgN/A
8:00 PM46 °FLight rain. Passing clouds.21 mph82%29.86 "HgN/A
7:30 PM46 °FPassing clouds.21 mph76%29.83 "HgN/A
7:00 PM46 °FPassing clouds.22 mph82%29.83 "HgN/A
6:30 PM46 °FPassing clouds.17 mph76%29.83 "HgN/A
6:00 PM45 °FPassing clouds.15 mph81%29.83 "HgN/A
5:30 PM43 °FPassing clouds.15 mph87%29.83 "HgN/A
5:00 PM43 °FLight rain. Passing clouds.14 mph87%29.83 "HgN/A
4:30 PM43 °FPassing clouds.13 mph87%29.83 "HgN/A
4:00 PM43 °FPassing clouds.15 mph87%29.83 "HgN/A
3:30 PM43 °FLight rain. Partly sunny.15 mph87%29.83 "HgN/A
3:00 PM45 °FBroken clouds.17 mph81%29.83 "HgN/A
2:30 PM45 °FPartly sunny.17 mph81%29.86 "HgN/A
2:00 PM45 °FPartly sunny.16 mph81%29.86 "HgN/A
1:30 PM43 °FPartly sunny.15 mph87%29.86 "HgN/A
1:00 PM43 °FPartly sunny.16 mph87%29.89 "HgN/A
12:30 PM43 °FPartly sunny.14 mph87%29.86 "HgN/A
12:00 PM43 °FLight rain. Partly sunny.15 mph87%29.89 "HgN/A
11:30 AM43 °FLight rain. Partly sunny.13 mph87%29.89 "HgN/A
11:00 AM41 °FPartly sunny.16 mph87%29.89 "HgN/A
10:30 AM41 °FPartly sunny.16 mph87%29.89 "HgN/A
10:00 AM41 °FPartly sunny.15 mph87%29.89 "HgN/A
9:30 AM41 °FLight rain. Partly sunny.16 mph87%29.89 "HgN/A
9:00 AM39 °FLight rain. Partly sunny.17 mph93%29.89 "Hg5 mi
8:30 AM39 °FLight rain. Partly sunny.18 mph93%29.89 "HgN/A
8:00 AM39 °FLight rain. Partly sunny.20 mph87%29.92 "HgN/A
7:30 AM39 °FLight rain. Partly cloudy.17 mph87%29.92 "HgN/A
7:00 AM37 °FLight rain. Partly cloudy.20 mph93%29.92 "HgN/A
6:30 AM37 °FLight rain. Partly cloudy.18 mph93%29.92 "Hg4 mi
6:00 AM37 °FLight rain. Partly cloudy.17 mph93%29.92 "Hg5 mi
5:30 AM37 °FLight rain. Partly cloudy.20 mph93%29.95 "Hg4 mi
4:30 AM37 °FLight rain. Partly cloudy.15 mph93%29.98 "Hg5 mi
4:00 AM39 °FLight rain. Partly cloudy.16 mph87%30.01 "HgN/A
3:30 AM39 °FLight rain. Passing clouds.16 mph81%30.01 "HgN/A
3:00 AM37 °FPassing clouds.15 mph87%30.01 "HgN/A
2:30 AM37 °FLight rain. Passing clouds.15 mph87%30.04 "HgN/A
2:00 AM37 °FLight rain. Partly cloudy.16 mph87%30.04 "HgN/A
Weather by CustomWeather, © 2014

See weather overviewHow to use our weather pages